Location: Dehesa de la Cepeda
(40.6574°N, 4.3013°W)
Time: 10:36:16
(UTC+00:00)

Transit 2A Rocket - Pass Details

Date: 10 August 2021
Orbit: 586 x 917 km, 66.7° (Epoch: 24 September)

Event Time Altitude Azimuth Distance (km) Brightness Sun altitude
Rises 12:30:30 0° 225° (SW) 2,847 8.2 64.7°
Reaches altitude 10° 12:32:45 10° 232° (SW) 1,977 7.6 64.6°
Maximum altitude 12:37:01 45° 305° (NW) 890 5.9 64.5°
Drops below altitude 10° 12:41:39 10° 19° (NNE) 2,153 7.2 64.4°
Sets 12:44:12 0° 25° (NNE) 3,132 7.9 64.3°
